{"data":{"norad_id":52576,"intl_designator":"2022-051AS","name":"STARLINK-3932","alt_names":[],"object_type":"PAYLOAD","status":"ACTIVE","operator":null,"country":"US","launch_date":"2022-05-13","launch_site_code":"AFWTR","launch_vehicle":null,"mission":null,"orbit_class":"UNKNOWN","rcs_meters":null,"size_class":null,"mass_kg":null,"dimensions":null,"purposes":["comms"],"wikipedia_slug":null,"has_3d_model":false,"image_url":null,"decayed_at":null,"tle_current":{"epoch":"2026-05-25T02:52:37.716672Z","epoch_age_seconds":75209,"freshness":"FRESH","line1":"1 52576U 22051AS  26145.11988098  .00003577  00000+0  24283-3 0  9990","line2":"2 52576  53.2138 136.0101 0000941  77.5194 282.5903 15.08820118223121","mean_motion":15.08820118,"eccentricity":9.41e-5,"inclination_deg":53.2138,"raan_deg":136.0101,"arg_perigee_deg":77.5194,"mean_anomaly_deg":282.5903,"bstar":0.00024283,"rev_number":22312,"period_min":95.438812275964,"perigee_km":539.15318268827,"apogee_km":540.45513921476,"semimajor_km":6917.9411609515,"source":"CELESTRAK","updated_at":"2026-05-25T13:38:17.192549Z"}}}